TimeEDT,TemperatureF,Dew PointF,Humidity,Sea Level PressureIn,VisibilityMPH,Wind Direction,Wind SpeedMPH,Gust SpeedMPH,PrecipitationIn,Events,Conditions,WindDirDegrees,DateUTC
12:52 AM,53.1,46.9,80,29.93,10.0,SE,3.5,-,N/A,,Overcast,140,2012-10-17 04:52:00
1:52 AM,53.1,46.0,77,29.93,10.0,Calm,Calm,-,N/A,,Overcast,0,2012-10-17 05:52:00
2:52 AM,51.1,46.9,86,29.93,10.0,Calm,Calm,-,N/A,,Partly Cloudy,0,2012-10-17 06:52:00
3:52 AM,45.0,43.0,93,29.93,10.0,Calm,Calm,-,N/A,,Partly Cloudy,0,2012-10-17 07:52:00
4:52 AM,45.0,43.0,93,29.93,10.0,Calm,Calm,-,N/A,,Partly Cloudy,0,2012-10-17 08:52:00
5:52 AM,48.9,44.1,83,29.94,10.0,SE,3.5,-,N/A,,Scattered Clouds,140,2012-10-17 09:52:00
6:52 AM,51.1,45.0,80,29.96,10.0,SSE,3.5,-,N/A,,Overcast,150,2012-10-17 10:52:00
7:52 AM,52.0,44.1,74,29.97,10.0,SE,4.6,-,N/A,,Overcast,140,2012-10-17 11:52:00
8:52 AM,52.0,46.0,80,29.98,10.0,South,3.5,-,N/A,,Overcast,170,2012-10-17 12:52:00
9:52 AM,55.9,46.9,72,30.00,10.0,South,4.6,-,N/A,,Mostly Cloudy,180,2012-10-17 13:52:00
10:52 AM,57.9,48.0,70,30.01,10.0,SSW,6.9,-,N/A,,Mostly Cloudy,200,2012-10-17 14:52:00
11:52 AM,64.9,48.9,56,30.00,10.0,South,6.9,-,N/A,,Scattered Clouds,190,2012-10-17 15:52:00
12:52 PM,69.1,46.9,45,29.98,10.0,SE,3.5,-,N/A,,Scattered Clouds,140,2012-10-17 16:52:00
1:52 PM,70.0,44.1,39,29.95,10.0,SSW,11.5,-,N/A,,Scattered Clouds,210,2012-10-17 17:52:00
2:52 PM,71.1,45.0,39,29.91,10.0,South,9.2,-,N/A,,Partly Cloudy,170,2012-10-17 18:52:00
3:52 PM,72.0,45.0,38,29.91,10.0,South,11.5,-,N/A,,Partly Cloudy,180,2012-10-17 19:52:00
4:52 PM,71.1,45.0,39,29.91,10.0,Variable,3.5,-,N/A,,Partly Cloudy,0,2012-10-17 20:52:00
5:52 PM,69.1,45.0,42,29.90,10.0,SSE,9.2,-,N/A,,Partly Cloudy,160,2012-10-17 21:52:00
6:52 PM,66.0,46.0,48,29.91,10.0,SE,9.2,-,N/A,,Partly Cloudy,140,2012-10-17 22:52:00
7:52 PM,61.0,46.9,60,29.94,10.0,South,4.6,-,N/A,,Partly Cloudy,170,2012-10-17 23:52:00
8:52 PM,61.0,46.0,58,29.94,10.0,SE,8.1,-,N/A,,Partly Cloudy,140,2012-10-18 00:52:00
9:52 PM,57.9,46.0,65,29.94,10.0,SE,5.8,-,N/A,,Clear,140,2012-10-18 01:52:00
10:52 PM,59.0,46.9,64,29.93,10.0,SSE,9.2,-,N/A,,Clear,150,2012-10-18 02:52:00
11:52 PM,54.0,46.9,77,29.92,10.0,SSE,4.6,-,N/A,,Clear,150,2012-10-18 03:52:00